K5MJM Weather Reports


time (UTC)temp
C
wind
direction
speed
KPH
gust
KPH
rain 1hr
cm
rain 24hr
cm
rain mn
cm
humidity
%
barometer
mb
20260506024918 9 45 19.3 25.7 0.00 0.00 0.00 70 1012.9
20260506023918 9 0 16.1 20.9 0.00 0.00 0.00 70 1013.1
20260506022958 9 23 17.7 24.1 0.00 0.00 0.00 71 1013.1
20260506021918 9 0 16.1 20.9 0.00 0.00 0.00 71 1013.2
20260506020917 9 23 20.9 27.4 0.00 0.00 0.00 71 1013.2
20260506015918 9 23 14.5 19.3 0.00 0.00 0.00 70 1013.1
20260506014918 9 23 22.5 29.0 0.00 0.00 0.00 70 1012.9
20260506013938 9 23 14.5 25.7 0.00 0.00 0.00 69 1012.8
20260506012917 9 0 19.3 25.7 0.00 0.00 0.00 69 1012.7
20260506011918 9 23 17.7 22.5 0.00 0.00 0.00 69 1012.5
20260506010917 10 23 16.1 20.9 0.00 0.00 0.00 69 1012.4
20260506005918 10 0 17.7 22.5 0.00 0.00 0.00 69 1012.2
20260506004918 10 0 19.3 25.7 0.00 0.00 0.00 69 1011.8
20260506003959 10 0 14.5 20.9 0.00 0.00 0.00 69 1011.3
20260506002938 10 23 11.3 20.9 0.00 0.00 0.00 68 1011.3
20260506001917 10 0 22.5 32.2 0.00 0.00 0.00 68 1011.1
20260506000918 10 23 19.3 27.4 0.00 0.00 0.00 67 1010.9
20260505235938 10 23 12.9 17.7 0.00 0.00 0.00 67 1011.0
20260505234938 10 0 17.7 24.1 0.00 0.00 0.00 66 1010.8
20260505233918 10 23 12.9 22.5 0.00 0.00 0.00 66 1010.7
20260505232919 10 0 24.1 33.8 0.00 0.00 0.00 66 1011.0
20260505231918 10 23 16.1 20.9 0.00 0.00 0.00 66 1011.4
20260505230929 10 23 19.3 24.1 0.00 0.00 0.00 66 1011.2
20260505225938 11 0 16.1 24.1 0.00 0.00 0.00 66 1011.0
20260505224959 11 23 20.9 29.0 0.00 0.00 0.00 65 1010.6
20260505223918 11 0 17.7 22.5 0.00 0.00 0.00 64 1010.5
20260505222917 11 0 20.9 27.4 0.00 0.00 0.00 64 1010.6
20260505221918 11 0 14.5 19.3 0.00 0.00 0.00 64 1010.7
20260505220918 11 23 14.5 22.5 0.00 0.00 0.00 63 1010.1
20260505215918 12 0 12.9 22.5 0.00 0.00 0.00 63 1010.1
20260505214918 12 0 14.5 22.5 0.00 0.00 0.00 62 1010.2
20260505213917 12 0 24.1 30.6 0.00 0.00 0.00 62 1009.7
20260505212918 12 0 16.1 22.5 0.00 0.00 0.00 62 1009.4
20260505211917 12 23 24.1 32.2 0.00 0.00 0.00 62 1009.6
20260505210917 12 0 24.1 35.4 0.00 0.00 0.00 62 1009.9
20260505205918 12 23 25.7 33.8 0.00 0.00 0.00 62 1009.2
20260505204938 12 23 22.5 30.6 0.00 0.00 0.00 64 1009.3
20260505203918 12 0 24.1 35.4 0.00 0.00 0.00 64 1009.9
20260505202918 12 23 20.9 27.4 0.00 0.00 0.00 64 1010.3
20260505201938 12 0 24.1 29.0 0.00 0.00 0.00 64 1009.1
20260505200918 12 23 14.5 19.3 0.00 0.00 0.00 65 1009.1
20260505195918 12 0 20.9 27.4 0.00 0.00 0.00 65 1009.0
20260505194917 12 23 24.1 30.6 0.00 0.00 0.00 64 1009.2
20260505193938 12 0 27.4 37.0 0.00 0.00 0.00 66 1008.9
20260505192918 12 0 27.4 38.6 0.00 0.00 0.00 67 1009.0
20260505191918 12 0 30.6 38.6 0.00 0.00 0.00 67 1009.1
20260505190918 12 23 19.3 32.2 0.00 0.00 0.00 67 1008.9
20260505185918 12 0 22.5 30.6 0.00 0.00 0.00 68 1008.8
20260505184917 12 0 25.7 35.4 0.00 0.00 0.00 68 1008.9
20260505183938 12 0 22.5 33.8 0.00 0.00 0.00 68 1008.8
20260505182918 12 0 25.7 33.8 0.00 0.00 0.00 68 1008.7
20260505181918 13 338 32.2 35.4 0.00 0.00 0.00 67 1008.7
20260505180917 13 0 22.5 29.0 0.00 0.00 0.00 66 1008.4
20260505175917 13 0 25.7 33.8 0.00 0.00 0.00 66 1008.2
20260505174938 13 0 20.9 29.0 0.00 0.00 0.00 66 1008.2
20260505173917 13 338 24.1 32.2 0.00 0.00 0.00 67 1007.7
20260505172917 13 0 22.5 32.2 0.00 0.00 0.00 68 1007.9
20260505171918 13 23 20.9 30.6 0.00 0.00 0.00 68 1007.7
20260505170917 13 0 17.7 24.1 0.00 0.00 0.00 68 1007.7
20260505165918 13 0 22.5 33.8 0.00 0.00 0.00 69 1007.3
20260505164918 13 0 22.5 29.0 0.00 0.00 0.00 69 1007.3
20260505163918 13 0 19.3 24.1 0.00 0.00 0.00 70 1007.2
20260505162918 13 23 19.3 27.4 0.00 0.00 0.00 70 1006.7
20260505161938 13 0 17.7 20.9 0.00 0.00 0.00 71 1006.5
20260505160918 13 23 25.7 32.2 0.00 0.00 0.00 70 1006.2
20260505152918 15 0 17.7 22.5 0.00 0.00 0.00 71 1005.2
20260505151917 15 0 20.9 25.7 0.00 0.00 0.00 71 1004.8
20260505150919 15 338 29.0 41.8 0.00 0.00 0.00 70 1004.5
20260505124917 20 135 1.6 4.8 0.00 0.00 0.00 71 1002.4
20260505123919 20 90 1.6 3.2 0.00 0.00 0.00 70 1002.5
20260505122918 20 0.0 0.0 0.00 0.00 0.00 70 1002.6
20260505121919 20 0.0 0.0 0.00 0.00 0.00 70 1002.3
20260505120918 20 338 3.2 4.8 0.00 0.00 0.00 70 1002.2
20260505115920 20 315 1.6 4.8 0.00 0.00 0.00 69 1001.9
20260505114918 20 338 8.0 12.9 0.00 0.00 0.00 69 1001.8
20260505113919 20 315 12.9 14.5 0.00 0.00 0.00 68 1001.5
20260505112918 20 248 4.8 11.3 0.00 0.00 0.00 68 1000.7
20260505111920 20 225 6.4 11.3 0.00 0.00 0.00 68 1000.5
20260505110917 21 248 6.4 24.1 0.00 0.00 0.00 67 1000.3
20260505101919 21 203 12.9 20.9 0.00 0.00 0.00 66 1000.1
20260505100940 21 180 16.1 30.6 0.00 0.00 0.00 67 1000.1
20260505095917 21 248 14.5 22.5 0.00 0.00 0.00 66 1000.0
20260505094919 21 203 11.3 20.9 0.00 0.00 0.00 66 1000.0
20260505093918 21 225 11.3 16.1 0.00 0.00 0.00 66 1000.0
20260505092919 21 180 14.5 27.4 0.00 0.00 0.00 66 999.9
20260505091937 21 225 11.3 20.9 0.00 0.00 0.00 66 999.9
20260505090919 21 180 12.9 22.5 0.00 0.00 0.00 66 1000.0
20260505085920 21 203 16.1 27.4 0.00 0.00 0.00 66 1000.2
20260505084917 21 203 12.9 30.6 0.00 0.00 0.00 66 1000.3
20260505083918 21 180 14.5 25.7 0.00 0.00 0.00 66 1000.3
20260505082919 21 203 11.3 20.9 0.00 0.00 0.00 66 1000.5
20260505081917 21 180 14.5 24.1 0.00 0.00 0.00 66 1000.6
20260505080919 21 225 11.3 17.7 0.00 0.00 0.00 66 1000.7
20260505075917 22 203 14.5 20.9 0.00 0.00 0.00 66 1000.7
20260505074939 22 180 14.5 27.4 0.00 0.00 0.00 66 1000.8
20260505073917 22 203 16.1 24.1 0.00 0.00 0.00 66 1001.0
20260505072919 22 203 9.7 16.1 0.00 0.00 0.00 66 1001.2
20260505071919 22 225 11.3 24.1 0.00 0.00 0.00 65 1001.3
20260505070919 22 203 17.7 29.0 0.00 0.00 0.00 65 1001.3
20260505065919 22 225 14.5 27.4 0.00 0.00 0.00 65 1001.4
20260505064937 22 203 14.5 25.7 0.00 0.00 0.00 64 1001.6
20260505063920 22 203 17.7 27.4 0.00 0.00 0.00 64 1001.7
20260505062917 22 180 16.1 30.6 0.00 0.00 0.00 64 1001.7
20260505061919 22 180 14.5 20.9 0.00 0.00 0.00 64 1001.7
20260505060919 22 203 16.1 25.7 0.00 0.00 0.00 63 1001.9
20260505055920 22 203 19.3 30.6 0.00 0.00 0.00 63 1001.8
20260505054920 22 180 27.4 45.1 0.00 0.00 0.00 63 1002.1
20260505053919 22 203 17.7 24.1 0.00 0.00 0.00 63 1002.1
20260505052918 22 203 16.1 27.4 0.00 0.00 0.00 63 1002.1
20260505051940 23 180 16.1 25.7 0.00 0.00 0.00 62 1002.2
20260505050917 23 180 20.9 32.2 0.00 0.00 0.00 62 1002.5
20260505040938 23 158 19.3 32.2 0.00 0.00 0.00 61 1002.6
20260505035918 23 203 20.9 29.0 0.00 0.00 0.00 61 1002.6
20260505034918 23 180 16.1 25.7 0.00 0.00 0.00 61 1002.8
20260505033918 23 180 14.5 24.1 0.00 0.00 0.00 60 1002.8
20260505032918 23 180 22.5 30.6 0.00 0.00 0.00 60 1002.8
20260505031918 23 203 17.7 24.1 0.00 0.00 0.00 60 1002.5
20260505030918 23 180 22.5 29.0 0.00 0.00 0.00 59 1002.5
20260505025918 23 248 14.5 22.5 0.00 0.00 0.00 59 1002.4